STARLINK-34386, 66096

Orbit data source: Space-Track

STARLINK-34386, 66096 is a payload satellite owned by SpaceX/Seattle (US) in LEO that was launched on Sun, 19 Oct 2025 UTC via an FALCON 9 launch vehicle from the Air Force Western Test Range (AFWTR). Payload-class satellites include a variety of spacecraft equipped with specific instruments for various scientific and technological missions. These include communications satellites like Starlink; space stations such as the ISS; scientific satellites like the Hubble; Earth observation satellites from companies like Planet Labs, Umbra, and HawkEye 360; GPS; miniature CubeSats for education and research; and military/defense satellites.

Loading next visibility...
Identifier
66096, 2025-236L
Orbit
LEO
Country
Flag of USUS
Related business
Manufacturer
SpaceX/Seattle
Mission
Operational Commercial Communications
Bus & Motor
STARLINK V2MO, Unknown motor
Mass
575 kg wet, ~530 kg dry
Launch date (UTC)
2025-10-19 (6 months ago)
Launch vehicle
FALCON 9
Launch site
Air Force Western Test Range (AFWTR)
Object type
Payload
Rocket body
Debris
Shape & HBR
Box + 2 Pan, 17.7 m
Radar Cross Section
36.964 m²

Expand to show TLE details & history
Last TLE update: 18 hours ago

TLE from 18 hours ago
0 STARLINK-34386
1 66096U 25236L   26094.91734553  .00015494  00000-0  53428-3 0  9991
2 66096  53.1582 341.8014 0000825 119.6997 240.4087 15.30191806 26963
Epoch: 2026-04-04T22:00Z
TLE epoch observation values (Epoch: 2026-04-04T22:00:58.653Z)
Latitude
0.00005°
Longitude
178.32681°
Altitude
476.418 km
Speed
7.629 km/s
True Right ascension
22h 47m 12s
True Declination
0° 00' 00"
Sunlit
Object was in daylight at epoch
Visualization orbit readout
Latitude
Unknown
Longitude
Unknown
Altitude
Unknown
Speed
Unknown
Apparent Right ascension
Unknown
Apparent Declination
Unknown
Sunlit
N/A
Visualization observer readout
Local Sidereal Time
21:54:13
Azimuth
Unknown
Elevation
Unknown
Doppler factor
Unknown
Orbital elements
Apogee altitude
476.062 km
Perigee altitude
474.931 km
Semi-major axis
6,853.633 km
Eccentricity
0.00008
Inclination
53.1582°
RAAN
341.8014°
Arg. of periapsis
119.6997°
True anomaly
240.40048°
Mean anomaly
240.4087°
Eccentric anomaly
240.40459°
Mean motion
3.82527 °/min
Orbital period
94.11 mins
BSTAR
0.00053428
Loading maneuver chart data...
Computing Atmospheric mass density...
Loading historical data...
Loading historical data...
Loading historical data...
Loading historical data...
Loading historical data...
Loading historical data...
Loading historical data...

Documentation

Showing up to 5 results
|